Location: Treviso
(45.6669°N, 12.2430°E)
Time: 23:02:27
(UTC+01:00)

ISS - Pass Details

Date: 24 November 2023
Orbit: 415 x 417 km, 51.6° (Epoch: 06 December)

Event Time Altitude Azimuth Distance (km) Brightness Sun altitude
Rises 17:26:33 0° 264° (W) 2,355 1.9 -9.4°
Reaches altitude 10° 17:28:44 10° 273° (W) 1,494 0.3 -9.7°
Maximum altitude 17:31:54 39° 344° (NNW) 644 -2.9 -10.3°
Enters shadow 17:34:24 15° 50° (NE) 1,239 -1.9 -10.7°
